1513954800.08,37827,7.5,73142.8,-11.99,-12.75,-12.71,0,*6D
1513954801.35,37828,7.5,73276.3,-11.99,-12.71,-12.61,0,*67
1513954802.62,37829,7.56,73234.3,-11.99,-12.75,-12.71,0,*63
1513954803.9,37830,7.5,73210.3,-11.99,-12.71,-12.71,0,*6F
1513954805.16,37831,7.56,73240.3,-11.99,-12.71,-12.61,0,*6F
1513954806.43,37832,7.56,73156.0,-11.99,-12.61,-12.71,0,*6C
1513954807.7,37833,7.5,73128.0,-11.99,-12.61,-12.71,0,*6D
1513954808.98,37834,7.5,73126.5,-11.99,-12.71,-12.71,0,*6B
1513954810.25,37835,7.56,73142.8,-11.99,-12.75,-12.61,0,*6F
1513954811.51,37836,7.5,73196.8,-11.99,-12.71,-12.61,0,*68
1513954812.79,37837,7.5,73198.3,-11.99,-12.75,-12.71,0,*6C
1513954814.06,37838,7.5,73174.0,-11.99,-12.71,-12.75,0,*63
1513954815.33,37839,7.5,73140.3,-11.99,-12.71,-12.71,0,*66
1513954816.61,37840,7.56,73138.8,-11.99,-12.75,-12.71,0,*6C
1513954817.88,37841,7.56,73154.5,-11.99,-12.71,-12.71,0,*69
1513954819.15,37842,7.5,73154.0,-11.99,-12.71,-12.75,0,*6E
1513954820.43,37843,7.56,73160.5,-11.99,-12.75,-12.71,0,*6F
1513954821.7,37844,7.56,73172.0,-11.99,-12.71,-12.71,0,*6C
1513954822.97,37845,7.56,73104.8,-11.99,-12.71,-12.75,0,*69
1513954824.24,37846,7.5,73118.8,-11.99,-12.75,-12.61,0,*6B
1513954825.51,37847,7.56,73102.5,-11.99,-12.61,-12.71,0,*6E
1513954826.81,37848,7.56,73122.3,-12.01,-12.75,-12.71,0,*66
1513954828.09,37849,7.56,73128.0,-11.99,-12.75,-12.71,0,*65
1513954829.35,37850,7.56,73126.0,-11.99,-12.71,-12.65,0,*6C
1513954830.61,37851,7.56,73156.3,-11.99,-12.71,-12.65,0,*6D
1513954831.88,37852,7.56,73124.8,-11.99,-12.61,-12.71,0,*6A
1513954833.16,37853,7.56,73136.3,-11.99,-12.71,-12.71,0,*6A
1513954834.43,37854,7.56,73140.0,-11.99,-12.71,-12.71,0,*6D
1513954835.7,37855,7.56,73122.5,-11.99,-12.71,-12.75,0,*68
1513954836.97,37856,7.56,73138.3,-11.99,-12.71,-12.75,0,*6B
1513954838.27,37857,7.5,73154.0,-12.01,-12.71,-12.71,0,*6C
1513954839.54,37858,7.56,73140.0,-11.99,-12.71,-12.71,0,*61
1513954840.82,37859,7.56,73156.3,-11.99,-12.71,-12.71,0,*60
1513954842.09,37860,7.5,73162.5,-11.99,-12.75,-12.75,0,*6A
1513954843.39,37861,7.56,73152.3,-12.01,-12.75,-12.71,0,*6D
1513954844.67,37862,7.5,73164.0,-11.99,-12.71,-12.71,0,*68
1513954845.94,37863,7.5,73158.5,-11.99,-12.71,-12.71,0,*69
1513954847.21,37864,7.5,73154.3,-11.99,-12.75,-12.71,0,*6A
1513954848.48,37865,7.5,73164.3,-11.99,-12.71,-12.65,0,*6A
1513954849.78,37866,7.56,73174.3,-12.01,-12.75,-12.71,0,*6A
1513954851.05,37867,7.56,73168.0,-11.99,-12.71,-12.61,0,*6C
1513954852.32,37868,7.56,73138.5,-11.99,-12.71,-12.75,0,*66
1513954853.59,37869,7.5,73182.0,-11.99,-12.71,-12.71,0,*63
1513954854.87,37870,7.5,73180.5,-11.99,-12.75,-12.71,0,*6F
1513954856.13,37871,7.56,73184.0,-11.99,-12.71,-12.61,0,*6B
1513954857.41,37872,7.5,73180.8,-11.99,-12.71,-12.71,0,*69
1513954858.68,37873,7.56,73176.3,-11.99,-12.71,-12.71,0,*68
1513954859.95,37874,7.5,73170.5,-11.99,-12.71,-12.71,0,*6F
1513954861.23,37875,7.56,73160.8,-11.99,-12.71,-12.71,0,*6E
1513954862.49,37876,7.5,73160.0,-11.99,-12.61,-12.61,0,*6D
1513954863.75,37877,7.56,73134.3,-11.99,-12.65,-12.65,0,*6C
1513954865.02,37878,7.56,73140.3,-11.99,-12.65,-12.57,0,*62
1513954866.28,37879,7.56,73174.3,-11.99,-12.71,-12.61,0,*63
1513954867.55,37880,7.56,73186.5,-11.99,-12.75,-12.75,0,*64
1513954868.83,37881,7.56,73196.5,-11.99,-12.71,-12.71,0,*65
1513954870.1,37882,7.5,73200.0,-11.99,-12.61,-12.71,0,*67
1513954871.36,37883,7.56,73202.5,-11.99,-12.71,-12.61,0,*66
1513954872.62,37884,7.56,73224.8,-11.99,-12.65,-12.65,0,*60
1513954873.89,37885,7.56,73202.5,-11.99,-12.61,-12.71,0,*60
1513954875.16,37886,7.56,73228.0,-11.99,-12.61,-12.61,0,*62
1513954876.42,37887,7.56,73240.5,-11.99,-12.57,-12.57,0,*63
1513954877.69,37888,7.5,73226.0,-11.99,-12.57,-12.57,0,*6C
1513954878.95,37889,7.56,73230.5,-11.99,-12.65,-12.57,0,*6C
1513954880.21,37890,7.56,73220.0,-11.99,-12.65,-12.65,0,*65
1513954881.48,37891,7.56,73222.8,-11.99,-12.57,-12.65,0,*65
1513954882.74,37892,7.56,73218.3,-11.99,-12.57,-12.57,0,*67
1513954884.01,37893,7.56,73234.0,-11.99,-12.61,-12.71,0,*67
1513954885.28,37894,7.56,73214.3,-11.99,-12.57,-12.53,0,*65
1513954886.55,37895,7.56,73214.8,-11.99,-12.57,-12.57,0,*60
1513954887.81,37896,7.56,73226.5,-11.99,-12.65,-12.57,0,*62
1513954889.08,37897,7.56,73224.8,-11.99,-12.53,-12.53,0,*62
1513954890.35,37898,7.56,73212.5,-11.99,-12.57,-12.57,0,*6D
1513954891.65,37899,7.56,73226.0,-11.97,-12.53,-12.53,0,*62
1513954892.91,37900,7.56,73206.3,-11.99,-12.57,-12.57,0,*6D
1513954894.2,37901,7.56,73198.3,-11.97,-12.57,-12.57,0,*62
1513954895.47,37902,7.5,73198.0,-11.99,-12.65,-12.57,0,*6E
1513954896.74,37903,7.56,73178.0,-11.99,-12.57,-12.57,0,*6E
1513954898.0,37904,7.56,73184.8,-11.99,-12.57,-12.53,0,*6D
1513954899.27,37905,7.56,73194.3,-11.99,-12.57,-12.53,0,*6C
1513954900.54,37906,7.5,73174.5,-11.99,-12.53,-12.57,0,*6F
1513954901.81,37907,7.56,73184.8,-11.99,-12.57,-12.57,0,*6A
1513954903.08,37908,7.56,73176.3,-11.99,-12.53,-12.57,0,*61
1513954904.34,37909,7.5,73152.3,-11.99,-12.57,-12.65,0,*65
1513954905.63,37910,7.56,73160.3,-11.97,-12.65,-12.53,0,*67
1513954906.9,37911,7.56,73142.3,-11.99,-12.53,-12.57,0,*69
1513954908.19,37912,7.56,73136.5,-11.97,-12.65,-12.57,0,*61
1513954909.46,37913,7.5,73150.5,-11.99,-12.57,-12.57,0,*6F
1513954910.75,37914,7.56,73146.3,-11.97,-12.65,-12.57,0,*67
1513954912.04,37915,7.56,73144.8,-11.97,-12.53,-12.57,0,*63
1513954913.31,37916,7.56,73156.5,-11.99,-12.57,-12.53,0,*6E
1513954914.58,37917,7.56,73160.3,-11.99,-12.53,-12.57,0,*6F
1513954915.85,37918,7.56,73158.5,-11.99,-12.65,-12.57,0,*65
1513954917.11,37919,7.56,73150.0,-11.99,-12.57,-12.57,0,*65
1513954918.4,37920,7.56,73152.0,-11.97,-12.57,-12.57,0,*61
1513954919.67,37921,7.5,73140.0,-11.99,-12.57,-12.57,0,*6E
1513954920.96,37922,7.56,73150.8,-11.97,-12.57,-12.65,0,*62
1513954922.22,37923,7.5,73140.3,-11.99,-12.57,-12.57,0,*6C
1513954923.49,37924,7.56,73154.8,-11.99,-12.57,-12.57,0,*6B
1513954924.78,37925,7.5,73170.8,-11.97,-12.53,-12.65,0,*61
1513954926.05,37926,7.56,73144.5,-11.99,-12.53,-12.57,0,*6D
1513954927.31,37927,7.56,73156.5,-11.99,-12.57,-12.57,0,*68
1513954928.58,37928,7.5,73174.0,-11.99,-12.57,-12.57,0,*67
1513954929.85,37929,7.56,73182.5,-11.99,-12.57,-12.57,0,*66
1513954931.14,37930,7.56,73142.0,-11.97,-12.53,-12.57,0,*64
1513954932.44,37931,7.56,73158.5,-11.97,-12.57,-12.53,0,*65
1513954933.73,37932,7.5,73144.0,-11.97,-12.53,-12.53,0,*62
1513954935.0,37933,7.5,73154.3,-11.99,-12.53,-12.57,0,*69
1513954936.3,37934,7.56,73156.8,-11.97,-12.53,-12.53,0,*64
1513954937.57,37935,7.56,73184.0,-11.99,-12.53,-12.57,0,*6F
1513954938.86,37936,7.56,73194.3,-11.97,-12.53,-12.57,0,*62
1513954940.16,37937,7.5,73186.8,-11.97,-12.57,-12.53,0,*63
1513954941.43,37938,7.56,73194.5,-11.99,-12.57,-12.57,0,*66
1513954942.72,37939,7.56,73210.8,-11.97,-12.57,-12.57,0,*69
1513954943.98,37940,7.56,73250.0,-11.99,-12.57,-12.53,0,*6D
1513954945.28,37941,7.56,73250.5,-11.97,-12.65,-12.57,0,*67
1513954946.57,37942,7.56,73206.5,-11.97,-12.57,-12.57,0,*65
1513954947.84,37943,7.56,73188.8,-11.99,-12.57,-12.53,0,*6E
1513954949.13,37944,7.56,73186.0,-11.97,-12.53,-12.57,0,*67
1513954950.42,37945,7.56,73204.5,-11.97,-12.57,-12.57,0,*62
1513954951.69,37946,7.5,73214.5,-11.99,-12.57,-12.57,0,*6F
1513954952.98,37947,7.56,73214.3,-11.97,-12.57,-12.57,0,*60
1513954954.25,37948,7.56,73216.5,-11.99,-12.53,-12.57,0,*65
1513954955.5,37949,7.5,73242.3,-11.95,-12.53,-12.47,0,*69
1513954956.79,37950,7.56,73228.5,-11.97,-12.57,-12.57,0,*66
1513954958.09,37951,7.56,73236.3,-11.97,-12.53,-12.53,0,*67
1513954959.35,37952,7.56,73240.8,-11.99,-12.57,-12.57,0,*6A
1513954960.65,37953,7.56,73242.3,-11.97,-12.57,-12.53,0,*61
1513954961.94,37954,7.5,73214.8,-11.97,-12.57,-12.53,0,*66
1513954963.24,37955,7.56,73202.3,-11.97,-12.57,-12.53,0,*67
1513954964.48,37956,7.5,73152.3,-11.95,-12.47,-12.53,0,*67
1513954965.73,37957,7.5,73118.8,-11.95,-12.53,-12.47,0,*66
1513954966.98,37958,7.5,73116.3,-11.91,-12.47,-12.53,0,*6D
1513954968.27,37959,7.56,73138.3,-11.97,-12.57,-12.53,0,*6B
1513954969.57,37960,7.56,73156.0,-11.97,-12.57,-12.53,0,*61
1513954970.82,37961,7.5,73152.0,-11.95,-12.53,-12.47,0,*63
1513954972.06,37962,7.56,73142.0,-11.95,-12.47,-12.53,0,*60
1513954973.34,37963,7.56,73128.3,-11.95,-12.53,-12.53,0,*64
1513954974.59,37964,7.5,73124.8,-11.95,-12.53,-12.47,0,*66
1513954975.83,37965,7.5,73134.0,-11.95,-12.47,-12.53,0,*67
1513954977.08,37966,7.5,73140.8,-11.95,-12.39,-12.53,0,*6D
1513954978.33,37967,7.56,73152.5,-11.95,-12.53,-12.47,0,*65
1513954979.57,37968,7.56,73152.5,-11.95,-12.53,-12.47,0,*6A
1513954980.84,37969,7.5,73186.8,-11.95,-12.53,-12.61,0,*6F
1513954982.12,37970,7.56,73190.8,-11.95,-12.53,-12.53,0,*66
1513954983.34,37971,7.56,73194.0,-11.91,-12.47,-12.47,0,*63
1513954984.56,37972,7.56,73222.5,-11.95,-12.47,-12.47,0,*64
1513954985.78,37973,7.56,73212.5,-11.91,-12.47,-12.47,0,*61
1513954987.05,37974,7.56,73154.8,-11.95,-12.53,-12.53,0,*62
1513954988.3,37975,7.56,73136.3,-11.95,-12.47,-12.53,0,*66
1513954989.55,37976,7.56,73158.0,-11.95,-12.47,-12.53,0,*65
1513954990.77,37977,7.56,73154.8,-11.95,-12.39,-12.39,0,*61
1513954992.04,37978,7.56,73154.0,-11.95,-12.53,-12.53,0,*6E
1513954993.26,37979,7.56,73158.8,-11.95,-12.47,-12.47,0,*6F
1513954994.51,37980,7.56,73166.5,-11.95,-12.53,-12.47,0,*6C
1513954995.78,37981,7.5,73128.8,-11.95,-12.53,-12.53,0,*68
1513954997.0,37982,7.56,73134.5,-11.91,-12.47,-12.47,0,*6F
1513954998.22,37983,7.56,73170.0,-11.95,-12.47,-12.47,0,*6A
1513954999.47,37984,7.5,73166.5,-11.91,-12.53,-12.47,0,*6C
1513955000.69,37985,7.5,73178.3,-11.95,-12.47,-12.47,0,*6C
1513955001.91,37986,7.56,73176.5,-11.95,-12.47,-12.47,0,*6F
1513955003.19,37987,7.5,73162.5,-11.95,-12.53,-12.53,0,*6E
1513955004.44,37988,7.56,73212.5,-11.95,-12.53,-12.47,0,*64
1513955005.68,37989,7.5,73222.0,-11.95,-12.53,-12.47,0,*65
1513955006.93,37990,7.56,73230.0,-11.95,-12.53,-12.47,0,*6D
1513955008.18,37991,7.56,73230.3,-11.95,-12.47,-12.53,0,*6C
1513955009.45,37992,7.56,73206.0,-11.95,-12.53,-12.53,0,*6A
1513955010.73,37993,7.56,73204.3,-11.91,-12.53,-12.53,0,*6F
1513955011.97,37994,7.5,73182.5,-11.91,-12.53,-12.47,0,*6D
1513955013.22,37995,7.56,73190.0,-11.91,-12.47,-12.53,0,*6C
1513955014.44,37996,7.56,73188.0,-11.95,-12.47,-12.47,0,*6E
1513955015.69,37997,7.56,73200.0,-11.91,-12.53,-12.47,0,*6E
1513955016.91,37998,7.56,73192.8,-11.91,-12.47,-12.47,0,*64
1513955018.13,37999,7.56,73224.0,-11.95,-12.47,-12.47,0,*61
1513955019.35,38000,7.56,73220.5,-11.91,-12.47,-12.47,0,*63
1513955020.6,38001,7.56,73228.3,-11.95,-12.53,-12.47,0,*63
1513955021.82,38002,7.56,73222.5,-11.91,-12.47,-12.47,0,*61
1513955023.06,38003,7.5,73198.5,-11.91,-12.53,-12.47,0,*65
1513955024.28,38004,7.56,73212.8,-11.91,-12.47,-12.47,0,*67
1513955025.5,38005,7.5,73190.8,-11.95,-12.47,-12.47,0,*62
1513955026.75,38006,7.56,73180.3,-11.91,-12.47,-12.53,0,*60
1513955028.0,38007,7.5,73200.0,-11.95,-12.47,-12.53,0,*65
1513955029.24,38008,7.56,73192.8,-11.91,-12.47,-12.53,0,*6E
1513955030.52,38009,7.56,73146.0,-11.91,-12.53,-12.53,0,*6A
1513955031.76,38010,7.5,73124.8,-11.95,-12.61,-12.47,0,*62
1513955033.04,38011,7.56,73124.5,-11.91,-12.53,-12.53,0,*63
1513955034.28,38012,7.56,73140.0,-11.95,-12.53,-12.47,0,*61
1513955035.53,38013,7.5,73116.8,-11.91,-12.53,-12.47,0,*64
1513955036.78,38014,7.56,73130.5,-11.91,-12.47,-12.53,0,*63
1513955038.03,38015,7.56,73142.5,-11.91,-12.53,-12.47,0,*62
1513955039.27,38016,7.56,73150.3,-11.91,-12.53,-12.47,0,*61
1513955040.49,38017,7.56,73162.8,-11.91,-12.47,-12.47,0,*65
1513955041.74,38018,7.56,73148.5,-11.91,-12.47,-12.53,0,*6F
1513955042.99,38019,7.56,73142.5,-11.91,-12.47,-12.53,0,*6E
1513955044.26,38020,7.5,73136.8,-11.91,-12.53,-12.53,0,*61
1513955045.51,38021,7.5,73176.5,-11.91,-12.47,-12.53,0,*65
1513955046.75,38022,7.5,73166.3,-11.91,-12.47,-12.53,0,*66
1513955048.03,38023,7.56,73166.8,-11.91,-12.53,-12.53,0,*62
1513955049.25,38024,7.56,73176.8,-11.91,-12.47,-12.47,0,*65
1513955050.5,38025,7.56,73194.5,-11.91,-12.53,-12.47,0,*61
1513955051.74,38026,7.56,73194.5,-11.91,-12.47,-12.53,0,*62
1513955053.02,38027,7.56,73208.0,-11.91,-12.53,-12.53,0,*66
1513955054.26,38028,7.5,73192.5,-11.89,-12.43,-12.43,0,*60
1513955055.5,38029,7.56,73200.8,-11.89,-12.43,-12.47,0,*65
1513955056.74,38030,7.56,73204.3,-11.91,-12.47,-12.53,0,*65
1513955057.99,38031,7.5,73214.5,-11.89,-12.47,-12.43,0,*6C
1513955059.23,38032,7.56,73198.8,-11.91,-12.47,-12.53,0,*67
1513955060.48,38033,7.56,73190.3,-11.89,-12.47,-12.43,0,*6E
1513955061.75,38034,7.56,73192.8,-11.91,-12.53,-12.53,0,*64
1513955063.03,38035,7.56,73142.8,-11.91,-12.53,-12.53,0,*65
1513955064.27,38036,7.56,73154.0,-11.91,-12.47,-12.53,0,*63
1513955065.51,38037,7.56,73162.0,-11.89,-12.43,-12.47,0,*6A
1513955066.78,38038,7.5,73190.0,-11.89,-12.57,-12.47,0,*60
1513955068.02,38039,7.56,73204.0,-11.89,-12.47,-12.47,0,*60
1513955069.26,38040,7.5,73238.5,-11.89,-12.43,-12.47,0,*6A
1513955070.54,38041,7.56,73226.3,-11.91,-12.53,-12.53,0,*66
1513955071.78,38042,7.56,73180.8,-11.89,-12.47,-12.47,0,*6C
1513955073.05,38043,7.56,73180.5,-11.89,-12.57,-12.47,0,*6C
1513955074.32,38044,7.56,73174.5,-11.89,-12.57,-12.47,0,*6B
1513955075.59,38045,7.56,73168.3,-11.91,-12.53,-12.53,0,*62
1513955076.83,38046,7.56,73180.8,-11.89,-12.47,-12.47,0,*68
1513955078.1,38047,7.56,73152.8,-11.89,-12.57,-12.47,0,*68
1513955079.37,38048,7.56,73146.5,-11.89,-12.57,-12.47,0,*67
1513955080.66,38049,7.56,73148.8,-11.89,-12.57,-12.57,0,*67
1513955081.93,38050,7.56,73140.5,-11.89,-12.61,-12.47,0,*6B
1513955083.21,38051,7.56,73188.8,-11.89,-12.61,-12.57,0,*6B
1513955084.48,38052,7.56,73182.5,-11.91,-12.65,-12.61,0,*60
1513955085.75,38053,7.56,73174.3,-11.91,-12.53,-12.65,0,*60
1513955087.02,38054,7.56,73162.3,-11.91,-12.65,-12.61,0,*66
1513955088.28,38055,7.56,73152.3,-11.91,-12.65,-12.65,0,*63
1513955089.54,38056,7.56,73148.0,-11.91,-12.61,-12.61,0,*60
1513955090.81,38057,7.56,73156.5,-11.91,-12.61,-12.61,0,*61
1513955092.1,38058,7.56,73148.8,-11.89,-12.57,-12.57,0,*67
1513955093.39,38059,7.56,73158.8,-11.89,-12.57,-12.57,0,*66
1513955094.68,38060,7.56,73184.5,-11.89,-12.57,-12.57,0,*6C
1513955095.95,38061,7.56,73168.8,-11.89,-12.47,-12.57,0,*6C
1513955097.22,38062,7.56,73184.3,-11.91,-12.53,-12.65,0,*62
1513955098.48,38063,7.56,73180.5,-11.91,-12.61,-12.61,0,*66
1513955099.77,38064,7.5,73186.3,-11.89,-12.57,-12.57,0,*68
1513955101.04,38065,7.5,73190.8,-11.91,-12.61,-12.65,0,*64
1513955102.3,38066,7.56,73182.0,-11.91,-12.65,-12.61,0,*67
1513955103.57,38067,7.56,73186.8,-11.91,-12.65,-12.61,0,*66
1513955104.84,38068,7.56,73194.5,-11.91,-12.61,-12.61,0,*6D
1513955106.1,38069,7.5,73170.8,-11.91,-12.61,-12.65,0,*68
1513955107.36,38070,7.56,73170.3,-11.91,-12.61,-12.65,0,*60
1513955108.62,38071,7.5,73168.0,-11.95,-12.61,-12.61,0,*61
1513955109.89,38072,7.56,73174.5,-11.91,-12.61,-12.65,0,*62
1513955111.15,38073,7.56,73188.8,-11.95,-12.61,-12.65,0,*67
1513955112.41,38074,7.56,73198.5,-11.91,-12.61,-12.61,0,*60
1513955113.7,38075,7.56,73188.3,-11.89,-12.57,-12.57,0,*68
1513955115.0,38076,7.56,73212.5,-11.89,-12.57,-12.57,0,*6B
1513955116.27,38077,7.5,73200.0,-11.87,-12.57,-12.57,0,*64
1513955117.56,38078,7.56,73206.0,-11.89,-12.57,-12.57,0,*65
1513955118.83,38079,7.56,73200.0,-11.87,-12.57,-12.57,0,*6A
1513955120.09,38080,7.56,73192.3,-11.91,-12.61,-12.65,0,*6F
1513955121.35,38081,7.5,73164.0,-11.91,-12.65,-12.65,0,*6A
1513955122.65,38082,7.56,73146.8,-11.89,-12.57,-12.57,0,*60
1513955123.94,38083,7.56,73134.0,-11.89,-12.57,-12.61,0,*64
1513955125.2,38084,7.56,73184.8,-11.91,-12.61,-12.61,0,*6F
1513955126.47,38085,7.56,73260.0,-11.91,-12.61,-12.61,0,*6E
1513955127.73,38086,7.5,73238.8,-11.91,-12.65,-12.61,0,*69
1513955129.0,38087,7.5,73186.8,-11.91,-12.65,-12.61,0,*68
1513955130.26,38088,7.5,73158.8,-11.91,-12.61,-12.61,0,*63
1513955131.53,38089,7.56,73150.0,-11.91,-12.61,-12.61,0,*62
1513955132.8,38090,7.5,73146.5,-11.91,-12.65,-12.53,0,*6F
1513955134.07,38091,7.56,73144.8,-11.89,-12.47,-12.57,0,*63
1513955135.35,38092,7.56,73146.3,-11.89,-12.61,-12.61,0,*61
1513955136.64,38093,7.56,73140.5,-11.89,-12.61,-12.61,0,*60
1513955137.93,38094,7.56,73168.3,-11.89,-12.61,-12.57,0,*62
1513955139.22,38095,7.56,73156.8,-11.89,-12.57,-12.61,0,*63
1513955140.51,38096,7.56,73148.8,-11.89,-12.57,-12.61,0,*60
1513955141.8,38097,7.5,73148.0,-11.89,-12.61,-12.57,0,*61
1513955143.09,38098,7.5,73162.5,-11.89,-12.61,-12.57,0,*6E
1513955144.38,38099,7.5,73188.3,-11.89,-12.61,-12.61,0,*6A
1513955145.65,38100,7.56,73186.5,-11.91,-12.65,-12.61,0,*66
1513955146.91,38101,7.56,73204.8,-11.91,-12.61,-12.65,0,*67
1513955148.17,38102,7.5,73204.0,-11.91,-12.65,-12.61,0,*64
1513955149.44,38103,7.5,73226.8,-11.91,-12.65,-12.61,0,*65
1513955150.7,38104,7.56,73218.0,-11.91,-12.61,-12.65,0,*62
1513955151.97,38105,7.56,73210.5,-11.91,-12.61,-12.53,0,*66
1513955153.24,38106,7.56,73220.5,-11.91,-12.65,-12.61,0,*60
1513955154.51,38107,7.56,73230.0,-11.95,-12.61,-12.53,0,*60
1513955155.77,38108,7.5,73224.3,-11.91,-12.61,-12.61,0,*6A
1513955157.04,38109,7.5,73208.3,-11.91,-12.61,-12.61,0,*6B
1513955158.3,38110,7.56,73186.8,-11.91,-12.61,-12.61,0,*63
1513955159.57,38111,7.56,73176.8,-11.95,-12.61,-12.61,0,*66
1513955160.86,38112,7.56,73178.3,-11.89,-12.57,-12.57,0,*68
1513955162.12,38113,7.56,73168.8,-11.89,-12.61,-12.47,0,*6D
1513955163.39,38114,7.5,73130.5,-11.89,-12.57,-12.47,0,*6F
1513955164.68,38115,7.56,73148.8,-11.89,-12.57,-12.57,0,*6F
1513955165.95,38116,7.56,73168.8,-11.91,-12.61,-12.61,0,*65
1513955167.21,38117,7.56,73186.8,-11.91,-12.65,-12.65,0,*64
1513955168.48,38118,7.56,73216.0,-11.95,-12.61,-12.61,0,*6F
1513955169.74,38119,7.56,73178.5,-11.91,-12.61,-12.61,0,*6A
1513955171.01,38120,7.56,73160.3,-11.91,-12.61,-12.61,0,*60
1513955172.27,38121,7.56,73184.0,-11.89,-12.57,-12.47,0,*69
1513955173.54,38122,7.56,73200.8,-11.89,-12.57,-12.47,0,*6A
1513955174.81,38123,7.56,73146.0,-11.89,-12.47,-12.57,0,*6B
1513955176.07,38124,7.56,73222.5,-11.91,-12.65,-12.61,0,*60
1513955177.35,38125,7.56,73184.5,-11.91,-12.65,-12.53,0,*60
1513955178.61,38126,7.56,73196.8,-11.91,-12.61,-12.61,0,*66
1513955179.88,38127,7.5,73282.3,-11.91,-12.61,-12.53,0,*66
1513955181.12,38128,7.56,73244.3,-11.91,-12.65,-12.47,0,*68
1513955182.39,38129,7.56,73194.0,-11.91,-12.61,-12.61,0,*69
1513955183.65,38130,7.5,73196.5,-11.91,-12.61,-12.65,0,*65
1513955184.91,38131,7.56,73218.3,-11.89,-12.47,-12.57,0,*68
1513955186.21,38132,7.56,73216.0,-11.89,-12.57,-12.57,0,*6A
1513955187.5,38133,7.56,73218.5,-11.89,-12.57,-12.57,0,*6B
1513955188.76,38134,7.56,73194.8,-11.89,-12.57,-12.47,0,*6D
1513955190.03,38135,7.56,73170.3,-11.89,-12.61,-12.47,0,*69
1513955191.3,38136,7.56,73226.5,-11.89,-12.57,-12.47,0,*6F
1513955192.59,38137,7.56,73182.5,-11.89,-12.61,-12.57,0,*6A
1513955193.83,38138,7.56,73192.3,-11.89,-12.47,-12.47,0,*60
1513955195.12,38139,7.5,73188.3,-11.89,-12.61,-12.57,0,*64
1513955196.41,38140,7.56,73176.3,-11.89,-12.57,-12.61,0,*6A
1513955197.68,38141,7.56,73166.5,-11.87,-12.57,-12.57,0,*60
1513955198.97,38142,7.5,73168.0,-11.89,-12.57,-12.57,0,*6D
1513955200.26,38143,7.56,73190.8,-11.89,-12.61,-12.57,0,*69
1513955201.55,38144,7.56,73164.0,-11.89,-12.57,-12.61,0,*6E
1513955202.84,38145,7.56,73154.3,-11.89,-12.57,-12.57,0,*6A
1513955204.13,38146,7.56,73160.5,-11.89,-12.57,-12.61,0,*6C
1513955205.42,38147,7.56,73144.5,-11.89,-12.57,-12.57,0,*68
1513955206.69,38148,7.56,73154.3,-11.89,-12.57,-12.47,0,*66
1513955207.98,38149,7.56,73164.8,-11.89,-12.57,-12.57,0,*66
1513955209.27,38150,7.56,73174.0,-11.89,-12.57,-12.57,0,*6E
1513955210.56,38151,7.56,73176.5,-11.89,-12.61,-12.57,0,*6A
1513955211.83,38152,7.5,73154.8,-11.87,-12.57,-12.57,0,*62
1513955213.12,38153,7.56,73140.0,-11.89,-12.61,-12.57,0,*68
1513955214.39,38154,7.56,73128.3,-11.87,-12.57,-12.57,0,*64
1513955215.66,38155,7.5,73126.0,-11.91,-12.53,-12.65,0,*67
1513955216.93,38156,7.5,73128.8,-11.91,-12.65,-12.61,0,*65
1513955218.19,38157,7.56,73144.3,-11.91,-12.53,-12.65,0,*65
1513955219.46,38158,7.56,73096.3,-11.91,-12.65,-12.61,0,*6B
1513955220.73,38159,7.56,73098.5,-11.91,-12.61,-12.61,0,*6E
1513955221.99,38160,7.56,73086.5,-11.91,-12.61,-12.61,0,*64
1513955223.28,38161,7.56,73066.5,-11.89,-12.57,-12.57,0,*6C
1513955224.57,38162,7.56,73068.5,-11.89,-12.61,-12.57,0,*6A
1513955225.86,38163,7.56,73090.8,-11.89,-12.61,-12.57,0,*6B
1513955227.15,38164,7.56,73118.8,-11.89,-12.57,-12.61,0,*6C
1513955228.44,38165,7.56,73120.8,-11.89,-12.57,-12.57,0,*68
1513955229.73,38166,7.56,73132.3,-11.89,-12.61,-12.57,0,*6E
1513955231.02,38167,7.5,73106.0,-11.89,-12.61,-12.61,0,*6A
1513955232.29,38168,7.56,73114.0,-11.91,-12.65,-12.61,0,*68
1513955233.55,38169,7.56,73116.3,-11.91,-12.65,-12.61,0,*69
1513955234.84,38170,7.56,73120.0,-11.89,-12.57,-12.61,0,*69
1513955236.14,38171,7.56,73138.3,-11.89,-12.57,-12.57,0,*6D
1513955237.43,38172,7.5,73114.5,-11.89,-12.57,-12.57,0,*6E
1513955238.71,38173,7.56,73132.8,-11.89,-12.61,-12.61,0,*6F
1513955239.98,38174,7.56,73134.8,-11.89,-12.57,-12.47,0,*69
1513955241.22,38175,7.56,73130.5,-11.89,-12.47,-12.43,0,*6D
1513955242.52,38176,7.56,73138.3,-11.89,-12.57,-12.57,0,*6A
1513955243.78,38177,7.56,73140.8,-11.89,-12.47,-12.57,0,*6A
1513955245.07,38178,7.56,73150.3,-11.89,-12.57,-12.57,0,*64
1513955246.34,38179,7.56,73150.5,-11.89,-12.57,-12.47,0,*64
1513955247.61,38180,7.56,73136.3,-11.87,-12.61,-12.57,0,*68
1513955248.9,38181,7.56,73146.8,-11.89,-12.57,-12.57,0,*62
1513955250.17,38182,7.5,73148.3,-11.89,-12.57,-12.47,0,*60
1513955251.41,38183,7.56,73154.0,-11.89,-12.47,-12.47,0,*60
1513955252.68,38184,7.56,73130.0,-11.89,-12.57,-12.47,0,*66
1513955253.94,38185,7.56,73134.0,-11.89,-12.57,-12.47,0,*67
1513955255.17,38186,7.56,73118.8,-11.87,-12.47,-12.47,0,*6B
1513955256.43,38187,7.56,73112.8,-11.91,-12.61,-12.65,0,*69
1513955257.69,38188,7.56,73126.5,-11.91,-12.61,-12.61,0,*62
1513955258.98,38189,7.56,73144.8,-11.89,-12.61,-12.57,0,*6F
1513955260.27,38190,7.56,73140.5,-11.89,-12.61,-12.57,0,*67
1513955261.55,38191,7.56,73146.5,-11.87,-12.57,-12.71,0,*69
1513955262.84,38192,7.56,73134.0,-11.89,-12.57,-12.57,0,*60
1513955264.13,38193,7.56,73170.8,-11.89,-12.57,-12.57,0,*61
1513955265.42,38194,7.56,73194.3,-11.89,-12.61,-12.57,0,*63
1513955266.69,38195,7.56,73174.8,-11.87,-12.57,-12.57,0,*69
1513955267.96,38196,7.56,73144.0,-11.89,-12.47,-12.57,0,*65
1513955269.23,38197,7.56,73126.8,-11.89,-12.47,-12.57,0,*64
1513955270.52,38198,7.56,73140.0,-11.89,-12.57,-12.61,0,*6F
1513955271.79,38199,7.56,73136.3,-11.87,-12.57,-12.57,0,*65
1513955273.08,38200,7.56,73154.5,-11.89,-12.57,-12.57,0,*68
1513955274.37,38201,7.56,73178.0,-11.89,-12.61,-12.57,0,*6C
1513955275.66,38202,7.56,73142.8,-11.89,-12.57,-12.61,0,*6F
1513955276.95,38203,7.56,73084.3,-11.89,-12.61,-12.57,0,*6E
1513955278.24,38204,7.5,73070.3,-11.89,-12.57,-12.57,0,*6C
1513955279.48,38205,7.56,73166.8,-11.89,-12.47,-12.47,0,*6D
1513955280.77,38206,7.56,73142.3,-11.89,-12.61,-12.57,0,*6B
1513955282.06,38207,7.56,73126.8,-11.89,-12.57,-12.57,0,*6F
1513955283.35,38208,7.56,73148.0,-11.89,-12.57,-12.61,0,*65
1513955284.64,38209,7.56,73146.5,-11.89,-12.57,-12.61,0,*64
1513955285.91,38210,7.56,73146.0,-11.89,-12.47,-12.61,0,*6D
1513955287.2,38211,7.56,73152.3,-11.89,-12.57,-12.61,0,*6D
1513955288.49,38212,7.56,73158.3,-11.89,-12.57,-12.57,0,*6B
1513955289.75,38213,7.56,73162.5,-11.89,-12.61,-12.47,0,*6E
1513955291.0,38214,7.56,73150.3,-11.89,-12.47,-12.47,0,*6D
1513955292.29,38215,7.56,73148.8,-11.89,-12.57,-12.57,0,*6C
1513955293.58,38216,7.56,73138.3,-11.89,-12.57,-12.57,0,*6F
1513955294.85,38217,7.56,73126.3,-11.89,-12.57,-12.47,0,*6F
1513955296.14,38218,7.56,73132.0,-11.89,-12.61,-12.57,0,*64
1513955297.43,38219,7.56,73134.8,-11.89,-12.57,-12.57,0,*60
1513955298.72,38220,7.56,73142.3,-11.89,-12.57,-12.57,0,*6A
1513955300.01,38221,7.56,73126.5,-11.89,-12.57,-12.57,0,*6B
1513955301.28,38222,7.56,73126.8,-11.91,-12.53,-12.53,0,*61
1513955302.55,38223,7.56,73118.0,-11.89,-12.47,-12.57,0,*68
1513955303.84,38224,7.56,73120.8,-11.89,-12.57,-12.57,0,*6E
1513955305.11,38225,7.56,73122.3,-11.89,-12.57,-12.47,0,*6E
1513955306.36,38226,7.56,73126.0,-11.87,-12.57,-12.47,0,*63
1513955307.62,38227,7.56,73132.3,-11.89,-12.47,-12.57,0,*6C
1513955308.89,38228,7.56,73134.5,-11.89,-12.57,-12.47,0,*63